Pittsfield, MA

7:22 AM EST on February 23, 2017 (GMT -0500)
Pittsfield Municipal

Weather History for KPSF - August, 2012

Change the Weather History Date:

Friday, August 17, 2012

  Actual Average Record
Temperature  
Mean Temperature 69 °F 67 °F  
Max Temperature 82 °F 77 °F 92 °F (1935)
Min Temperature 55 °F 56 °F 40 °F (1927)
Degree Days  
Heating Degree Days 0 1  
Month to date heating degree days 0 17  
Since 1 June heating degree days 95 149  
Since 1 July heating degree days 3 48  
Cooling Degree Days 4 3  
Month to date cooling degree days 107 63  
Year to date cooling degree days 417 240  
Since 1 June cooling degree days 373 227  
Growing Degree Days 18 (Base 50)    
Moisture  
Dew Point 59 °F    
Average Humidity 77    
Maximum Humidity 100    
Minimum Humidity 54    
Precipitation  
Precipitation 0.42 in 0.13 in 1.16 in (1959)
Month to date precipitation 3.86 2.31  
Year to date precipitation 20.44 28.00  
Sea Level Pressure  
Sea Level Pressure 29.83 in    
Wind  
Wind Speed 4 mph (WSW)    
Max Wind Speed 25 mph    
Max Gust Speed 38 mph    
Visibility 4 miles    
Events Fog , Rain , Thunderstorm    
T = Trace of Precipitation, MM = Missing Value Source: NWS Daily Summary

Daily Weather History Graph

Daily Weather History Graph

Search for Another Location

Airport or City:

Trip Planner

Search our weather history database for the weather conditions in past years. The results will help you decide how hot, cold, wet, or windy it might be!

Date:

Astronomy

Aug. 17, 2012 Rise Set
Actual Time 6:02 AM EDT 7:50 PM EDT
Civil Twilight 5:32 AM EDT 8:20 PM EDT
Nautical Twilight 4:56 AM EDT 8:57 PM EDT
Astronomical Twilight 4:16 AM EDT 9:36 PM EDT
Moon 6:03 AM EDT (8/17) 7:30 PM EDT (8/17)
Length of Visible Light 14h 47m
Length of Day
13h 47m
New Moon, 0% of the Moon is Illuminated
Aug 17
New Moon
Aug 24
First Quarter
Aug 31
Full
Sep 8
Last Quarter
Sep 15
New

Hourly Weather History & Observations

Time (EDT) Temp. Heat Index Dew Point Humidity Pressure Visibility Wind Dir Wind Speed Gust Speed Precip Events Conditions
12:54 AM 59.0 °F - 57.9 °F 96% 29.83 in 7.0 mi Calm Calm - N/A   Clear
1:54 AM 59.0 °F - 57.9 °F 96% 29.83 in 8.0 mi Calm Calm - N/A   Clear
2:14 AM 57.2 °F - 57.2 °F 100% 29.89 in 1.8 mi Calm Calm - N/A   Clear
2:29 AM 57.2 °F - 57.2 °F 100% 29.89 in 3.0 mi Calm Calm - N/A   Clear
2:49 AM 57.2 °F - 55.4 °F 94% 29.90 in 2.0 mi Calm Calm - N/A   Clear
2:54 AM 57.9 °F - 57.0 °F 97% 29.83 in 4.0 mi Calm Calm - N/A   Clear
3:54 AM 57.0 °F - 55.9 °F 96% 29.82 in 7.0 mi Calm Calm - N/A   Clear
4:19 AM 55.4 °F - 55.4 °F 100% 29.88 in 2.5 mi Calm Calm - N/A   Clear
4:54 AM 55.9 °F - 55.0 °F 97% 29.80 in 4.0 mi Calm Calm - N/A   Clear
5:31 AM 55.4 °F - 55.4 °F 100% 29.86 in 5.0 mi Calm Calm - N/A   Partly Cloudy
5:49 AM 55.4 °F - 55.4 °F 100% 29.86 in 1.2 mi Calm Calm - N/A   Scattered Clouds
5:54 AM 55.0 °F - 55.0 °F 100% 29.80 in 0.5 mi Calm Calm - N/A Fog Fog
5:57 AM 55.4 °F - 55.4 °F 100% 29.86 in 0.2 mi Calm Calm - N/A Fog Fog
6:04 AM 55.4 °F - 55.4 °F 100% 29.87 in 0.2 mi Calm Calm - N/A Fog Fog
6:14 AM 55.4 °F - 55.4 °F 100% 29.86 in 0.2 mi Calm Calm - N/A Fog Fog
6:42 AM 55.4 °F - 55.4 °F 100% 29.87 in 2.0 mi Calm Calm - N/A   Partly Cloudy
6:49 AM 55.4 °F - 55.4 °F 100% 29.87 in 1.0 mi Calm Calm - N/A   Mist
6:54 AM 55.9 °F - 55.9 °F 100% 29.81 in 0.2 mi Calm Calm - N/A Fog Fog
7:03 AM 57.2 °F - 55.4 °F 94% 29.87 in 1.0 mi Calm Calm - N/A   Mist
7:06 AM 57.2 °F - 57.2 °F 100% 29.88 in 2.0 mi Calm Calm - N/A   Scattered Clouds
7:10 AM 57.2 °F - 57.2 °F 100% 29.88 in 1.2 mi Calm Calm - N/A   Mostly Cloudy
7:18 AM 57.2 °F - 57.2 °F 100% 29.88 in 0.5 mi Calm Calm - N/A Fog Fog
7:38 AM 59.0 °F - 57.2 °F 94% 29.88 in 3.0 mi Calm Calm - N/A   Mostly Cloudy
7:45 AM 60.8 °F - 59.0 °F 94% 29.87 in 3.0 mi Calm Calm - N/A   Scattered Clouds
7:54 AM 60.1 °F - 59.0 °F 96% 29.81 in 4.0 mi Calm Calm - N/A   Partly Cloudy
8:54 AM 64.9 °F - 61.0 °F 87% 29.80 in 8.0 mi Calm Calm - N/A   Clear
9:54 AM 70.0 °F - 61.0 °F 73% 29.79 in 10.0 mi Calm Calm - N/A   Clear
10:54 AM 75.0 °F - 62.1 °F 64% 29.77 in 9.0 mi SSW 4.6 mph - N/A   Clear
11:54 AM 79.0 °F - 62.1 °F 56% 29.76 in 9.0 mi SSW 6.9 mph - N/A   Clear
12:54 PM 80.1 °F 81.7 °F 64.0 °F 58% 29.75 in 10.0 mi SW 9.2 mph 16.1 mph N/A   Clear
1:54 PM 81.0 °F 81.9 °F 62.1 °F 52% 29.73 in 10.0 mi SW 9.2 mph - N/A   Mostly Cloudy
2:54 PM 79.0 °F - 64.0 °F 60% 29.73 in 9.0 mi SW 11.5 mph - N/A   Clear
4:54 PM 78.1 °F - 64.9 °F 64% 29.74 in 8.0 mi WSW 9.2 mph - N/A   Clear
5:54 PM 77.0 °F - 66.0 °F 69% 29.73 in 7.0 mi SSW 5.8 mph - N/A Thunderstorm Partly Cloudy
6:45 PM 69.8 °F - 62.6 °F 78% 29.84 in 2.0 mi WNW 25.3 mph 38.0 mph 0.09 in Thunderstorm Unknown
6:47 PM 66.2 °F - 62.6 °F 88% 29.85 in 0.8 mi WNW 23.0 mph 38.0 mph 0.19 in Rain , Thunderstorm Thunderstorms and Rain
6:51 PM 64.4 °F - 62.6 °F 94% 29.83 in 0.2 mi NW 15.0 mph 38.0 mph 0.30 in Fog , Rain , Thunderstorm Heavy Thunderstorms and Rain
6:54 PM 63.0 °F - 62.1 °F 97% 29.79 in 0.2 mi NW 11.5 mph 33.4 mph 0.35 in Fog , Rain , Thunderstorm Heavy Thunderstorms and Rain
7:01 PM 62.6 °F - 62.6 °F 100% 29.85 in 1.0 mi West 6.9 mph 18.4 mph 0.01 in Rain , Thunderstorm Light Thunderstorms and Rain
7:05 PM 64.4 °F - 62.6 °F 94% 29.85 in 4.0 mi West 6.9 mph - 0.01 in Rain , Thunderstorm Light Thunderstorms and Rain
7:30 PM 64.4 °F - 62.6 °F 94% 29.88 in 4.0 mi SSW 4.6 mph - 0.04 in Rain Light Rain
7:40 PM 64.4 °F - 60.8 °F 88% 29.88 in 2.0 mi West 5.8 mph - 0.06 in Rain Light Rain
7:54 PM 64.0 °F - 62.1 °F 93% 29.82 in 9.0 mi WNW 4.6 mph - 0.06 in Rain Light Rain
8:03 PM 64.4 °F - 62.6 °F 94% 29.87 in 9.0 mi West 4.6 mph - 0.01 in Rain Light Rain
8:54 PM 64.0 °F - 61.0 °F 90% 29.81 in 10.0 mi Calm Calm - 0.01 in Rain Light Rain
9:54 PM 63.0 °F - 59.0 °F 87% 29.80 in 10.0 mi NW 4.6 mph - 0.00 in   Overcast
10:54 PM 62.1 °F - 59.0 °F 90% 29.80 in 10.0 mi SSW 3.5 mph - N/A   Overcast
11:54 PM 62.1 °F - 59.0 °F 90% 29.80 in 10.0 mi Calm Calm - N/A   Overcast